Location: Lloyden Park
(37.4658°N, 122.2031°W)
Time: 18:45:36
(UTC+00:00)

Daily predictions for brighter satellites

Satellite Brightness Start Highest point End
(mag) Time Altitude Azimuth Time Altitude Azimuth Time Altitude Azimuth
CZ-2D R/B 4.1 12:05:17 10° NNW 12:07:54 14° WNW 12:10:33 10° W
Cosmos 1140 Rocket 4.1 12:04:29 12° SW 12:08:57 40° WNW 12:13:50 10° N
H-2A R/B 4.2 12:05:52 10° N 12:09:22 33° WNW 12:12:50 10° SW
Cosmos 2263 Rocket 2.9 12:06:58 12° SW 12:11:49 37° WNW 12:17:04 10° N
Meteor 1-24 Rocket 4.4 12:09:06 10° SW 12:14:30 40° WNW 12:20:05 10° N
Cosmos 1378 Rocket 4.5 12:11:51 10° SSE 12:16:03 51° E 12:20:19 10° NNE
BREEZE M DEB (TANK) 2.6 12:16:22 10° SSW 12:18:30 45° SE 12:21:27 10° ENE
Meteor 1-28 Rocket 4.2 12:16:14 10° SSW 12:19:00 23° W 12:21:49 10° NW
Meteor 2-5 Rocket 4.4 12:15:37 10° SW 12:20:48 37° WNW 12:26:08 10° N
SJ 16-02 3.7 12:25:37 10° SSE 12:29:02 23° E 12:32:28 10° NE
Tiangong -1.2 12:26:34 10° WNW 12:29:40 50° NNE 12:32:46 10° E
SL-16 R/B 3.3 12:25:45 10° SSW 12:31:03 30° W 12:36:24 10° NW
